Location: Breitenfeld
(46.8500°N, 15.6333°E)
Time: 18:38:40
(UTC+00:00)

Cosmos 1300 - Pass Details

Date: 09 April 2020
Orbit: 511 x 515 km, 82.5° (Epoch: 23 May)

Event Time Altitude Azimuth Distance (km) Brightness Sun altitude
Exits shadow 18:43:08 - 159° (SSE) 1,875 5.1 -11.3°
Reaches altitude 10° 18:43:30 10° 157° (SSE) 1,737 4.9 -11.4°
Maximum altitude 18:46:58 34° 92° (E) 864 3.3 -11.9°
Drops below altitude 10° 18:50:27 10° 27° (NNE) 1,752 5.4 -12.5°
Sets 18:52:43 0° 18° (NNE) 2,645 6.4 -12.8°
